User: anonymous   Login
Location: Unspecified
(0.0000°N, 0.0000°E)
Time: 18:49:36
(UTC+00:00)
Language:

Orsted - Orbit

View from above orbital plane
View from above orbital plane
View from above satellite
View from above satellite

Ground track
Ground track

The orbit data is extracted from the following two-line orbital elements,

1 25635U 99008B   18288.90371360 +.00000129 +00000-0 +37848-4 0  9999
2 25635 096.4563 085.5294 0139965 137.6372 223.5736 14.48107125036258
Epoch (UTC): 15 October 2018 21:41:20
Eccentricity: 0.0139965
inclination: 96.4563°
perigee height: 632 km
apogee height: 831 km
right ascension of ascending node: 85.5294°
argument of perigee: 137.6372°
revolutions per day: 14.48107125
mean anomaly at epoch: 223.5736°
orbit number at epoch: 3625

The dashed part of the orbit path shows where the satellite is in the earth's shadow,  

DLR